Regional Weather Roundup
Issued by NWS

Home | Current Version | Previous Version | Text Only | Print | Product List | Glossary Off
Versions: 1 2 3 4 5 6 7 8 9 10 11 12 13 14 15 16 17 18 19 20 21 22 23 24 25 26 27 28 29 30 31 32 33 34 35 36 37 38 39 40 41 42 43 44 45 46 47 48 49 50

000
ASUS43 KLMK 191402
RWRKY
KENTUCKY REGIONAL WEATHER ROUNDUP
NATIONAL WEATHER SERVICE LOUISVILLE KY
900 AM EST SUN FEB 19 2017

NOTE "FAIR" INDICATES FEW OR NO CLOUDS BELOW 12,000 FEET
WITH NO SIGNIFICANT WEATHER AND/OR OBSTRUCTIONS TO VISIBILITY.

KYZ001>023-026-027-061>063-070>075-191500-
WESTERN AND SOUTH CENTRAL KENTUCKY

CITY           SKY/WX    TMP DP  RH WIND       PRES   REMARKS
PADUCAH        FOG       47  45  93 CALM      30.09R VSB<1/4
HENDERSON      CLOUDY    50  46  87 CALM      30.10R
OWENSBORO      FOG       49  49 100 CALM      30.10R VSB 1
HOPKINSVILLE   SUNNY     47  47 100 CALM      30.09R
BOWLING GREEN  CLOUDY    50  47  89 CALM      30.12R FOG
GLASGOW        NOT AVBL
$$

KYZ024-025-028>034-038-045-046-053-191500-
NORTH CENTRAL KENTUCKY

CITY           SKY/WX    TMP DP  RH WIND       PRES   REMARKS
LOUISVILLE/SDF CLOUDY    51  49  92 S6        30.08R FOG
LOUISVILLE/LOU CLOUDY    51  49  92 S5        30.08R FOG
FORT KNOX      CLOUDY    49  49 100 S3        30.07R FOG
$$

KYZ035>037-039>044-047>052-055>060-089>105-191500-
NORTHEAST KENTUCKY

CITY           SKY/WX    TMP DP  RH WIND       PRES   REMARKS
LEXINGTON      CLOUDY    49  46  90 SW6       30.08R FOG
COVINGTON      CLOUDY    49  47  93 W8        30.05R FOG
FRANKFORT      CLOUDY    50  46  86 SW3       30.07R FOG
$$

KYZ054-064>069-076>088-106>120-191500-
SOUTHEAST KENTUCKY

CITY           SKY/WX    TMP DP  RH WIND       PRES   REMARKS
JACKSON        CLOUDY    48  45  89 VRB3      30.09R
LONDON         CLOUDY    47  45  93 CALM      30.11R FOG
SOMERSET       CLOUDY    46  46 100 CALM      30.13R
MIDDLESBORO    CLOUDY    48  48 100 CALM      30.11R FOG
MONTICELLO     CLOUDY    49  48  97 W5        30.14R
$$





USA.gov is the U.S. government's official web portal to all federal, state and local government web resources and services.